GSAT0215 (GALILEO 19) (43055 NORAD) Tracking and Keplerian Element Data

This shows tracking and keplerian element data for the satellite.

Feedback or suggestion? Click here.




ElementValue
Catalog43055
NameGSAT0215 (GALILEO 19)
Epoch Orbit2980
Epoch Day269.31599289
Epoch Year2022
RAAN258.9461
Inclination55.6861
Eccentricity0.0004083
Argument of Perigee277.3249
Mean Anonmoly82.6139
Mean Motion1.70473941
Decay Rate3.2E-07
L11 43055U 17079A 22269.31599289 .00000032 00000+0 00000+0 0 9991
L22 43055 55.6861 258.9461 0004083 277.3249 82.6139 1.70473941 29808

Live tracking and technical data element details for GSAT0215 (GALILEO 19) (NORAD 43055). GSAT0215 (GALILEO 19) can be tracked NOW for your location showing map with azimuth and elevation plus other details from your city location.

Track the satellite on the map from your city or location and see movement details for azimuth, elevation, latitude, longitude, range, height, and movement on the map or in text.







IsCatalogInMostPopularTable: catalog: 43055, numindb: 740
Update: records affected: 1



GetName: 43055 GSAT0215 (GALILEO 19)

Hit Count: updated at: Fri, 30 Sep 2022 03:03:10 GMT